Home > Time Zones > World Clock > Weather > U.S.A. > Gary > Past weeks

Flag for U.S.A. Weather past 2 weeks in Gary, Indiana, U.S.A.

Now
59 °F

Clear.


Feels Like: 59 °F
Forecast: 62 / 79 °F
Wind: No wind

Location: Lansing Municipal Airport

Current Time: Aug 2, 2014 at 3:59:28 AM

Latest Report: Aug 2, 2014 at 3:15 AM


Visibility: 7 mi

Pressure: 30.09 "Hg

Humidity: 95%

Dew point: 58 °F

Location of GaryLocation

Historic Weather in Gary — Graph

°F

Gary temperature yesterday

Maximum temperature yesterday: 83 °F (at 1:35 PM)
Minimum temperature yesterday: 60 °F (at 5:15 AM)
Average temperature yesterday: 69 °F

Past Weeks' High & Low Weather Summary

 TemperatureHumidityPressure
High86 °F (Jul 27, 1:55 PM)98% (Aug 1, 5:15 AM)30.20 "Hg (Aug 1, 5:15 AM)
Low52 °F (Jul 29, 5:55 AM)32% (Jul 27, 1:55 PM)29.71 "Hg (Jul 27, 12:55 PM)
Average69 °F70%30.03 "Hg
* Reported Jul 18 2:15 AM — Aug 2 2:55 AM, Gary, Weather by CustomWeather, © 2014

Note: Actual official high and low records may vary slightly from our data, if they occured in-between our weather recording intervals... More about our weather records

Advertising

Gary weather history for previous 24 hours

 ConditionsComfort  
Time TempWeatherWind HumidityBarometerVisibility
2:55 AM
Aug 2
60 °FClear.No wind94%30.09 "Hg7 mi
2:35 AM60 °FClear.5 mph92%30.08 "Hg7 mi
2:15 AM61 °FClear.No wind93%30.09 "Hg7 mi
1:55 AM60 °FClear.No wind95%30.09 "Hg7 mi
1:35 AM59 °FClear.3 mph93%30.08 "Hg7 mi
1:15 AM61 °FClear.3 mph93%30.09 "Hg7 mi
12:55 AM61 °FClear.3 mph93%30.10 "Hg7 mi
12:15 AM61 °FClear.No wind95%30.11 "Hg7 mi
11:55 PM
Aug 1
61 °FClear.No wind94%30.11 "Hg7 mi
11:15 PM61 °FClear.3 mph93%30.12 "Hg7 mi
10:55 PM64 °FPassing clouds.No wind84%30.13 "Hg10 mi
10:35 PM65 °FPassing clouds.No wind83%30.13 "Hg10 mi
10:15 PM64 °FPassing clouds.3 mph83%30.13 "Hg10 mi
9:55 PM65 °FClear.No wind81%30.13 "Hg10 mi
9:15 PM65 °FClear.No wind79%30.11 "Hg10 mi
8:55 PM65 °FClear.3 mph82%30.10 "Hg10 mi
8:35 PM67 °FClear.3 mph76%30.10 "Hg10 mi
8:15 PM68 °FClear.No wind72%30.09 "Hg10 mi
7:55 PM70 °FSunny.6 mph67%30.09 "Hg10 mi
7:35 PM71 °FScattered clouds.9 mph60%30.09 "Hg10 mi
7:15 PM71 °FScattered clouds.6 mph61%30.08 "Hg10 mi
6:55 PM70 °FScattered clouds.6 mph65%30.08 "Hg10 mi
5:35 PM74 °FSunny.6 mph55%30.09 "Hg10 mi
5:15 PM74 °FSunny.5 mph56%30.08 "Hg10 mi
4:55 PM74 °FSunny.7 mph57%30.08 "Hg10 mi
4:35 PM74 °FSunny.8 mph59%30.07 "Hg10 mi
4:15 PM71 °FSunny.14 mph64%30.07 "Hg10 mi
3:55 PM71 °FThundershowers. Scattered clouds.13 mph66%30.09 "Hg10 mi
3:15 PM78 °FScattered clouds.14 mph56%30.09 "Hg10 mi
2:55 PM75 °FScattered clouds.6 mph56%30.09 "Hg10 mi
2:35 PM74 °FScattered clouds.9 mph55%30.09 "Hg10 mi
2:15 PM75 °FThunderstorms. Cloudy.6 mph51%30.08 "Hg10 mi
1:55 PM78 °FThunderstorms. Overcast.8 mph52%30.08 "Hg10 mi
1:35 PM83 °FThunderstorms. Broken clouds.7 mph44%30.08 "Hg10 mi
1:15 PM82 °FThundershowers. Scattered clouds.10 mph45%30.08 "Hg10 mi
12:55 PM82 °FThundershowers. Scattered clouds.7 mph44%30.08 "Hg10 mi
12:35 PM78 °FThundershowers. Broken clouds.7 mph53%30.09 "Hg10 mi
12:15 PM81 °FBroken clouds.9 mph50%30.09 "Hg10 mi
11:55 AM79 °FBroken clouds.9 mph51%30.09 "Hg10 mi
11:35 AM80 °FScattered clouds.3 mph55%30.10 "Hg10 mi
11:15 AM79 °FSunny.No wind56%30.11 "Hg10 mi
10:55 AM77 °FSunny.6 mph61%30.11 "Hg10 mi
10:35 AM75 °FPartly sunny.No wind62%30.11 "Hg10 mi
10:15 AM73 °FPartly sunny.3 mph69%30.11 "Hg10 mi
9:55 AM72 °FScattered clouds.3 mph73%30.11 "Hg10 mi
9:35 AM71 °FSunny.No wind74%30.11 "Hg10 mi
9:15 AM71 °FSunny.No wind74%30.10 "Hg10 mi
8:55 AM70 °FPartly sunny.No wind76%30.10 "Hg10 mi
8:35 AM69 °FPartly sunny.6 mph82%30.11 "Hg7 mi
8:15 AM67 °FFog.No wind87%30.11 "Hg5 mi
7:55 AM65 °FOvercast.3 mph91%30.11 "Hg7 mi
7:35 AM64 °FFog.5 mph93%30.10 "Hg5 mi
7:15 AM64 °FFog.No wind93%30.10 "Hg5 mi
6:55 AM64 °FThundershowers. Fog.3 mph94%30.09 "Hg5 mi
6:35 AM62 °FFog.5 mph97%30.09 "Hg5 mi
6:15 AM61 °FFog.3 mph98%30.09 "Hg5 mi
5:55 AM60 °FFog.No wind98%30.08 "Hg5 mi
5:35 AM60 °FFog.No wind98%30.08 "Hg3 mi
5:15 AM60 °FFog.No wind98%30.08 "Hg4 mi
4:55 AM60 °FFog.No wind97%30.08 "Hg5 mi
4:35 AM61 °FPassing clouds.No wind97%30.07 "Hg7 mi
4:15 AM61 °FPassing clouds.No wind95%30.06 "Hg7 mi
3:55 AM61 °FPassing clouds.No wind96%30.06 "Hg7 mi
3:35 AM62 °FPassing clouds.No wind94%30.06 "Hg7 mi
3:15 AM62 °FPartly cloudy.No wind95%30.06 "Hg7 mi
Weather by CustomWeather, © 2014

See weather overviewHow to use our weather pages